[[{"header":{"parameterUnit":"m.s-1","parameterCategory":1,"la1":30.2991,"la2":30.254,"lo1":-89.0895,"lo2":-89.0444,"dy":0.0017,"dx":0.0017,"nx":28,"ny":28,"refTime":"2025-11-28T09:00:00:Z","depth":0,"parameterNumber":2,"parameterNumberName":"U-component_of_WINDS"},"data":[0,0,0,0,0,0,0,0,0,0,0,0,0,0,0,0,0,0,0,0,0,0,0,0,0,0,0,0,0,0,0,0,0,0,0,0,0,0,0,0,0,0,0,0,0,0,0,0,0,0,0,0,0,0,0,0,0,0,-6.3777,-6.3778,0,-6.3795,-6.3795,-6.3796,-6.3603,-6.3598,-6.3592,-6.3587,-6.3606,-6.3611,-6.3616,0,0,0,0,0,0,0,0,0,0,0,0,0,-6.3575,-6.358,-6.3777,-6.3778,-6.3778,-6.3795,-6.3795,-6.3796,-6.3604,-6.3597,-6.3591,-6.3585,-6.3604,-6.361,-6.3617,0,0,0,0,0,0,0,0,0,0,0,0,0,-6.3635,-6.3582,-6.3777,-6.3684,-6.3676,-6.3795,-6.3795,-6.3796,-6.3605,-6.3597,-6.3589,-6.3582,-6.3602,-6.3609,-6.3618,-6.3827,0,0,-6.3642,-6.3646,0,0,0,0,0,0,0,0,-6.3632,-6.3643,-6.3698,-6.3691,-6.3682,-6.3689,-6.3731,-6.3806,-6.3607,-6.3632,-6.3587,-6.3578,-6.364,-6.3644,-6.3665,-6.3828,-6.3828,-6.3643,-6.3648,-6.3652,-6.3654,0,0,0,0,0,0,0,-6.3628,-6.3641,-6.3784,-6.3699,-6.3689,-6.3641,-6.3641,-6.3744,-6.368,-6.3629,-6.3615,-6.362,-6.3634,-6.3658,-6.3664,-6.3829,-6.3643,-6.365,-6.3655,-6.3658,-6.416,-6.4169,0,0,0,0,0,0,-6.3637,-6.3639,-6.3784,-6.3785,-6.3637,-6.3651,-6.3651,-6.3695,-6.3679,-6.3668,-6.3627,-6.3611,-6.3648,-6.3655,-6.3664,-6.3905,-6.3651,-6.3659,-6.3664,-6.4152,-6.4162,-6.4171,0,0,0,0,0,0,-6.3633,-6.3652,-6.3783,-6.3708,-6.3721,-6.3663,-6.3714,-6.3699,-6.3722,-6.3677,-6.3664,-6.3663,-6.3642,-6.3652,-6.3787,-6.3903,-6.3663,-6.367,-6.4142,-6.4155,-6.4167,-6.4391,0,0,0,0,0,0,-6.3628,-6.3652,-6.3731,-6.3711,-6.3726,-6.3907,-6.3721,-6.3705,-6.3737,-6.3717,-6.3707,-6.3698,-6.3636,-6.3776,-6.3795,-6.391,-6.3676,-6.4131,-6.4148,-6.4163,-6.4372,-6.4409,-6.4441,0,0,0,0,0,-6.3622,-6.3794,-6.3736,-6.3754,-6.3824,-6.3914,-6.3922,-6.3847,-6.3747,-6.3826,-6.3796,-6.3698,-6.3888,-6.3791,-6.3811,-6.393,-6.4124,-6.4143,-6.4162,-6.4357,-6.4402,-6.444,0,0,0,0,0,0,-6.3828,-6.3789,-6.3725,-6.3896,-6.391,-6.3881,-6.3978,-6.3898,-6.394,-6.3919,-6.3825,-6.3825,-6.3974,-6.3966,-6.3859,-6.413,-6.3988,-6.4012,-6.413,-6.4172,-6.4206,-6.4203,-6.3683,0,0,0,0,0,-6.3894,-6.3971,-6.3932,-6.4087,-6.4097,-6.4037,-6.4074,-6.4015,-6.4025,-6.403,-6.401,-6.4024,-6.4086,-6.4129,-6.4184,-6.4371,-6.4365,-6.4463,-6.4497,-6.4525,-6.4546,-6.4642,-6.4684,-6.4234,-6.4234,-6.4234,0,0,-6.403,-6.4018,-6.4072,-6.4128,-6.4132,-6.4212,-6.4043,-6.4136,-6.4194,-6.4044,-6.4169,-6.4156,-6.4164,-6.4326,-6.4396,-6.4323,-6.4669,-6.455,-6.4573,-6.4578,-6.4666,-6.4708,-6.4746,-6.4247,-6.4245,-6.4243,0,0,-6.4318,-6.4318,-6.4445,-6.4452,-6.446,-6.4419,-6.445,-6.4434,-6.4418,-6.4543,-6.4431,-6.4499,-6.4609,-6.4619,-6.4639,-6.493,-6.4841,-6.4951,-6.5128,-6.5223,-6.5258,-6.5289,-6.539,-6.5428,-6.4973,-6.4973,-6.4974,0,-6.4485,-6.4602,-6.452,-6.462,-6.4647,-6.4515,-6.4642,-6.4653,-6.4679,-6.47,-6.4619,-6.4752,-6.475,-6.491,-6.4981,-6.5003,-6.5033,-6.495,-6.526,-6.529,-6.5318,-6.5413,-6.5452,-6.4986,-6.4985,-6.4984,-6.4982,0,-6.4806,-6.489,-6.4991,-6.5018,-6.5057,-6.5171,-6.5105,-6.5154,-6.5092,-6.506,-6.5187,-6.5179,-6.5228,-6.5263,-6.5204,-6.5415,-6.5369,-6.5276,-6.5131,-6.5375,-6.5463,-6.5499,-6.5005,-6.5,-6.4997,-6.4993,0,0,-6.5223,-6.5203,-6.5242,-6.5251,-6.525,-6.5313,-6.542,-6.5468,-6.551,-6.5534,-6.5619,-6.5715,-6.5628,-6.5651,-6.5592,-6.5676,-6.5903,-6.5571,-6.557,-6.563,-6.6132,-6.62,-6.6244,-6.5846,-6.5852,-6.5858,-6.613,0,-6.5501,-6.5681,-6.561,-6.5797,-6.5871,-6.5747,-6.5839,-6.5848,-6.5821,-6.588,-6.5849,-6.5917,-6.5799,-6.5812,-6.5889,-6.586,-6.6002,-6.5839,-6.5922,-6.5926,-6.5921,-6.629,-6.6362,-6.6619,-6.6164,-6.617,-6.6174,0,-6.5848,-6.5884,-6.6077,-6.6061,-6.6089,-6.6174,-6.6211,-6.627,-6.6278,-6.6252,-6.6277,-6.62,-6.6302,-6.616,-6.6299,-6.619,-6.622,-6.6211,-6.6219,-6.6221,-6.6063,-6.6299,-6.67,-6.6738,-6.6228,-6.6224,-6.622,0,-6.6128,-6.6225,-6.6352,-6.6365,-6.6351,-6.6413,-6.641,-6.6409,-6.6442,-6.6476,-6.6496,-6.6542,-6.6566,-6.6603,-6.6539,-6.6442,-6.6687,-6.654,-6.6666,-6.6668,-6.672,-6.6717,-6.7129,-6.6747,-6.6746,-6.6745,-6.6745,0,-6.6443,-6.6566,-6.6477,-6.6556,-6.6689,-6.6607,-6.6741,-6.6724,-6.6725,-6.6796,-6.6693,-6.6763,-6.6676,-6.6738,-6.669,-6.681,-6.6823,-6.6804,-6.6789,-6.6811,-6.6813,-6.6827,-6.6806,-6.6755,-6.6753,-6.6751,-6.6749,0,-6.6777,-6.6724,-6.6854,-6.6829,-6.6826,-6.6925,-6.6903,-6.6974,-6.694,-6.7032,-6.7049,-6.6996,-6.7063,-6.7004,-6.7069,-6.7036,-6.7196,-6.7157,-6.7193,-6.7181,-6.7309,-6.7297,-6.7741,-6.7794,-6.7382,-6.7386,-6.7389,0,-6.698,-6.7071,-6.7056,-6.7097,-6.71,-6.7167,-6.72,-6.7123,-6.7162,-6.7177,-6.7245,-6.7304,-6.7345,-6.7458,-6.7424,-6.7473,-6.7432,-6.7585,-6.7438,-6.7457,-6.743,-6.7424,-6.7432,-6.7613,-6.7618,-6.7622,-6.7625,0,-6.7344,-6.7313,-6.7364,-6.7407,-6.7449,-6.7479,-6.7501,-6.754,-6.7461,-6.7509,-6.7576,-6.7609,-6.7674,-6.7732,-6.777,-6.7766,-6.7683,-6.7672,-6.7703,-6.7725,-6.7741,-6.7731,-6.727,-6.7662,-6.7658,-6.7655,-6.7653,-6.7652,-6.7616,-6.769,-6.7691,-6.7751,-6.7759,-6.7782,-6.7846,-6.782,-6.7874,-6.7921,-6.7873,-6.7954,-6.7958,-6.7999,-6.8006,-6.8067,-6.8003,-6.8049,-6.806,-6.8072,-6.8089,-6.7735,-6.8074,-6.8073,-6.8072,-6.8071,-6.807,0,-6.7972,-6.7966,-6.8023,-6.8056,-6.8103,-6.8022,-6.8041,-6.8086,-6.8158,-6.8169,-6.8212,-6.8288,-6.8344,-6.8316,-6.8364,-6.8418,-6.8381,-6.8433,-6.8427,-6.8427,-6.8145,-6.8112,-6.8462,-6.8462,-6.8462,-6.8462,-6.8462,-6.8462,-6.8162,-6.8282,-6.8251,-6.8374,-6.8367,-6.8445,-6.8463,-6.8483,-6.849,-6.858,-6.8626,-6.8607,-6.8601,-6.8648,-6.8696,-6.8686,-6.8707,-6.8772,-6.8749,-6.8486,-6.8447,-6.841,-6.8378,-6.8779,-6.8779,-6.9024,-6.9027,-6.9028]},{"header":{"parameterUnit":"m.s-1","parameterCategory":1,"la1":30.2991,"la2":30.254,"lo1":-89.0895,"lo2":-89.0444,"dy":0.0017,"dx":0.0017,"nx":28,"ny":28,"refTime":"2025-11-28T09:00:00:Z","depth":0,"parameterNumber":3,"parameterNumberName":"V-component_of_WINDS"},"data":[0,0,0,0,0,0,0,0,0,0,0,0,0,0,0,0,0,0,0,0,0,0,0,0,0,0,0,0,0,0,0,0,0,0,0,0,0,0,0,0,0,0,0,0,0,0,0,0,0,0,0,0,0,0,0,0,0,0,-2.2078,-2.2079,0,-2.2128,-2.2128,-2.2129,-2.214,-2.214,-2.2139,-2.2139,-2.2188,-2.2189,-2.2191,0,0,0,0,0,0,0,0,0,0,0,0,0,-2.1989,-2.199,-2.2078,-2.2079,-2.2079,-2.2128,-2.2128,-2.2129,-2.214,-2.2139,-2.2139,-2.2139,-2.2187,-2.2189,-2.2191,0,0,0,0,0,0,0,0,0,0,0,0,0,-2.2032,-2.1991,-2.2078,-2.2091,-2.2092,-2.2128,-2.2128,-2.2129,-2.214,-2.2139,-2.2139,-2.2138,-2.2186,-2.2189,-2.2191,-2.2217,0,0,-2.2199,-2.22,0,0,0,0,0,0,0,0,-2.2029,-2.2035,-2.2088,-2.209,-2.2092,-2.2127,-2.2115,-2.2158,-2.214,-2.2122,-2.2139,-2.2138,-2.2168,-2.2172,-2.2182,-2.2219,-2.2221,-2.2199,-2.22,-2.2201,-2.2202,0,0,0,0,0,0,0,-2.2026,-2.2033,-2.2098,-2.2089,-2.2091,-2.2092,-2.2098,-2.2123,-2.2147,-2.2123,-2.2124,-2.213,-2.2169,-2.218,-2.2183,-2.2222,-2.2199,-2.2201,-2.2202,-2.2203,-2.2279,-2.2279,0,0,0,0,0,0,-2.2022,-2.203,-2.2096,-2.2099,-2.2059,-2.2095,-2.2101,-2.2116,-2.2147,-2.2151,-2.2131,-2.213,-2.2176,-2.218,-2.2185,-2.2215,-2.2201,-2.2204,-2.2205,-2.2278,-2.2279,-2.228,0,0,0,0,0,0,-2.202,-2.2027,-2.2094,-2.2065,-2.2074,-2.2097,-2.2114,-2.2118,-2.2129,-2.2152,-2.2156,-2.2138,-2.2176,-2.2182,-2.2208,-2.2217,-2.2205,-2.2207,-2.2278,-2.2278,-2.2279,-2.2277,0,0,0,0,0,0,-2.2017,-2.2027,-2.2038,-2.2065,-2.2075,-2.2118,-2.2115,-2.2119,-2.2133,-2.2134,-2.216,-2.2164,-2.2176,-2.2204,-2.2211,-2.222,-2.2209,-2.2277,-2.2278,-2.2279,-2.2276,-2.2277,-2.2278,0,0,0,0,0,-2.2014,-2.2035,-2.2038,-2.2046,-2.209,-2.2118,-2.2124,-2.2138,-2.2134,-2.2144,-2.2159,-2.2163,-2.2215,-2.2207,-2.2214,-2.2225,-2.2276,-2.2278,-2.2279,-2.2276,-2.2277,-2.2278,0,0,0,0,0,0,-2.2008,-2.2039,-2.2043,-2.2074,-2.2093,-2.212,-2.2134,-2.2139,-2.2159,-2.2159,-2.2174,-2.218,-2.2205,-2.2217,-2.2208,-2.2249,-2.2245,-2.2248,-2.224,-2.2242,-2.2243,-2.2239,-2.2211,0,0,0,0,0,-2.201,-2.2032,-2.2058,-2.2083,-2.2092,-2.2111,-2.2124,-2.2133,-2.2153,-2.2161,-2.2178,-2.2197,-2.2217,-2.223,-2.2251,-2.2278,-2.2282,-2.2288,-2.2289,-2.229,-2.2292,-2.2305,-2.2307,-2.2284,-2.2284,-2.2284,0,0,-2.2016,-2.2035,-2.2048,-2.2082,-2.2098,-2.2118,-2.2118,-2.2141,-2.2155,-2.2165,-2.219,-2.2203,-2.2225,-2.2251,-2.2264,-2.2262,-2.2299,-2.2291,-2.2292,-2.2294,-2.2306,-2.2309,-2.231,-2.2284,-2.2284,-2.2284,0,0,-2.2035,-2.2053,-2.2075,-2.209,-2.2114,-2.2127,-2.2132,-2.2157,-2.2166,-2.2192,-2.2199,-2.2216,-2.2251,-2.2266,-2.2278,-2.23,-2.2303,-2.2306,-2.2312,-2.2324,-2.2326,-2.2328,-2.2334,-2.2336,-2.2308,-2.2308,-2.2308,0,-2.2038,-2.2071,-2.2085,-2.2106,-2.212,-2.2129,-2.215,-2.2164,-2.2193,-2.2202,-2.22,-2.2243,-2.2258,-2.2287,-2.2292,-2.2302,-2.2307,-2.2303,-2.2325,-2.2326,-2.2328,-2.2334,-2.2337,-2.2308,-2.2308,-2.2308,-2.2308,0,-2.2072,-2.2094,-2.2109,-2.2136,-2.2152,-2.2173,-2.2188,-2.2202,-2.2208,-2.222,-2.2245,-2.2264,-2.2287,-2.2294,-2.2301,-2.2323,-2.2321,-2.2322,-2.2318,-2.233,-2.2336,-2.2339,-2.2308,-2.2308,-2.2308,-2.2308,0,0,-2.2091,-2.2125,-2.213,-2.2141,-2.2167,-2.2184,-2.2204,-2.2227,-2.2237,-2.2256,-2.2272,-2.2301,-2.2301,-2.2314,-2.2323,-2.2334,-2.2347,-2.2332,-2.2333,-2.2334,-2.2371,-2.237,-2.2372,-2.235,-2.235,-2.2351,-2.2368,0,-2.2113,-2.2151,-2.2163,-2.2193,-2.2212,-2.222,-2.2237,-2.2254,-2.2265,-2.2281,-2.2293,-2.2312,-2.2312,-2.2319,-2.2331,-2.2343,-2.2355,-2.2342,-2.2364,-2.2364,-2.2358,-2.2376,-2.2375,-2.2391,-2.2371,-2.2371,-2.2372,0,-2.2144,-2.2163,-2.2196,-2.2217,-2.2225,-2.2241,-2.2261,-2.2278,-2.2296,-2.2303,-2.2317,-2.2323,-2.2343,-2.2338,-2.2364,-2.2355,-2.2364,-2.2371,-2.2372,-2.2374,-2.2369,-2.2377,-2.2397,-2.2398,-2.2376,-2.2375,-2.2375,0,-2.2152,-2.2186,-2.2209,-2.2219,-2.2245,-2.2256,-2.2267,-2.2285,-2.2296,-2.2314,-2.2321,-2.2341,-2.2351,-2.2365,-2.2376,-2.2372,-2.24,-2.2397,-2.2405,-2.2405,-2.2411,-2.2411,-2.2431,-2.2418,-2.2418,-2.2418,-2.2418,0,-2.2175,-2.2194,-2.2213,-2.2228,-2.2248,-2.2261,-2.2281,-2.2292,-2.2307,-2.2323,-2.233,-2.2344,-2.2358,-2.2374,-2.2382,-2.2401,-2.2406,-2.2411,-2.2413,-2.241,-2.2409,-2.2416,-2.2415,-2.2419,-2.2419,-2.2418,-2.2418,0,-2.2188,-2.2202,-2.2227,-2.2249,-2.2255,-2.2269,-2.2287,-2.23,-2.2311,-2.233,-2.2335,-2.2351,-2.2369,-2.2382,-2.2405,-2.2411,-2.2431,-2.2433,-2.2425,-2.2426,-2.2433,-2.2432,-2.2459,-2.2462,-2.2447,-2.2447,-2.2448,0,-2.2201,-2.2216,-2.2239,-2.225,-2.2261,-2.2279,-2.2291,-2.2303,-2.2315,-2.2335,-2.2346,-2.2364,-2.238,-2.2408,-2.2421,-2.2438,-2.2441,-2.2448,-2.2443,-2.2439,-2.2439,-2.2438,-2.2439,-2.2449,-2.2449,-2.2449,-2.245,0,-2.2223,-2.2228,-2.2246,-2.2265,-2.2279,-2.2295,-2.231,-2.2318,-2.2333,-2.2346,-2.2364,-2.2376,-2.2399,-2.2417,-2.2435,-2.2445,-2.2449,-2.2451,-2.2454,-2.2451,-2.2445,-2.2447,-2.2426,-2.245,-2.245,-2.245,-2.245,-2.245,-2.2236,-2.2248,-2.2266,-2.2284,-2.2297,-2.2311,-2.2324,-2.2335,-2.2351,-2.2371,-2.2377,-2.2396,-2.2412,-2.2436,-2.2446,-2.246,-2.246,-2.2464,-2.2465,-2.2466,-2.2465,-2.2443,-2.2464,-2.2464,-2.2464,-2.2464,-2.2464,0,-2.2256,-2.2267,-2.2284,-2.2306,-2.2319,-2.2322,-2.2339,-2.235,-2.2367,-2.2381,-2.2396,-2.2416,-2.2433,-2.2447,-2.2464,-2.2472,-2.2474,-2.2476,-2.2475,-2.2477,-2.2465,-2.2461,-2.2474,-2.2474,-2.2474,-2.2474,-2.2474,-2.2474,-2.2269,-2.2289,-2.2297,-2.2323,-2.2334,-2.2353,-2.2362,-2.2374,-2.2385,-2.2408,-2.2422,-2.2431,-2.2444,-2.2462,-2.2477,-2.248,-2.2486,-2.2487,-2.2491,-2.2479,-2.2478,-2.2477,-2.2473,-2.2488,-2.2488,-2.2501,-2.2501,-2.2501]}]]